Skip Page Navigation
NASA JPL Caltech
NASA Logo - Jet Propulsion Laboratory + View the NASA Portal
+ Center for Near-Earth Object Studies
JPL Home Earth Solar System Stars & Galaxies Technology
JPL Solar System Dynamics
BODIES ORBITS EPHEMERIDES TOOLS PHYSICAL DATA DISCOVERY FAQ SITE MAP
JPL Small-Body Database Browser
Search: [ help ]  
215274 (2001 PH38)
Classification: Main-belt Asteroid          SPK-ID: 2215274
Ephemeris | Orbit Diagram | Orbital Elements | Mission Design | Physical Parameters | Discovery Circumstances | Close-Approach Data ]

[ show orbit diagram ]
Orbital Elements at Epoch 2459000.5 (2020-May-31.0) TDB
Reference: JPL 23 (heliocentric ecliptic J2000)
 Element Value Uncertainty (1-sigma)   Units 
e .266150016478682 4.7889e-08  
a 2.61536878593998 1.2066e-08 au
q 1.919288340464224 1.2484e-07 au
i 13.02412241662753 4.408e-06 deg
node 87.62310759477025 2.0533e-05 deg
peri 257.3040822596219 2.1815e-05 deg
M 150.0650500943372 8.1753e-06 deg
tp 2458356.516280807233
(2018-Aug-26.01628081)
3.374e-05 TDB
period 1544.890957379185
4.23
1.0691e-05
2.927e-08
d
yr
n .2330261551991465 1.6126e-09 deg/d
Q 3.311449231415736 1.5277e-08 au
  Orbit Determination Parameters
   # obs. used (total)      1180  
   data-arc span      9623 days (26.35 yr)  
   first obs. used      1993-12-14  
   last obs. used      2020-04-19  
   planetary ephem.      DE431  
   SB-pert. ephem.      SB431-N16  
   condition code      0  
   norm. resid. RMS      .43069  
   source      ORB  
   producer      Otto Matic  
   solution date      2020-May-21 09:17:09  

Additional Information
 Earth MOID = .960465 au 
 Jupiter MOID = 2.24871 au 
 T_jup = 3.321 
[ show covariance matrix ]

Ephemeris | Orbit Diagram | Orbital Elements | Mission Design | Physical Parameters | Discovery Circumstances | Close-Approach Data ]

Physical Parameter Table
Parameter Symbol Value Units Sigma Reference Notes
absolute magnitude H 15.5   n/a MPO454546  

215274 (2001 PH38)          Discovered 2001-Aug-11 by NEAT at Palomar
Reference: 20090607/Numbers.arcLast Updated: 2009-06-08

[ hide close-approach data ]
Close-Approach Data   ...sorted by Date/Time (TDB)
Date/Time (TDB) Time Uncertainty
(days_HH:MM)
Body Nominal Distance (au) Minimum Distance (au) Maximum Distance (au) V-relative (km/s) V-infinity (km/s) JD (TDB) Time Uncertainty (minutes) Semi-major axis (km) Semi-minor axis (km) range-LOV angle (deg) N-sigma BP Orbit Ref. Reference Modified
2014-Aug-08 20:00 < 00:01 Hebe 0.0364205962879773 0.0364174464319542 0.0364237468593595 5.50053828504934 5.50053825401766 2456878.333328849 0.64613253226635 306.538769545418 40.3077382656065 -60.0367115422554 117399.66924272 T 23 CATAB v2.0f-lin.ifort 2020-May-21 09:17:32 2020-May-21 09:17
Ephemeris | Orbit Diagram | Orbital Elements | Mission Design | Physical Parameters | Discovery Circumstances | Close-Approach Data ]
ABOUT SSD CREDITS/AWARDS PRIVACY/COPYRIGHT GLOSSARY LINKS
FirstGov 2020-Aug-06 14:39 UT
(server date/time)  
NASA Home Page
Site Manager:   Ryan S. Park
Webmaster  Alan B. Chamberlin